Theta_e
314 317 321 324 325 327 330 332 332 334 333 333 333 334 334 333 331 327 325 324 325 326 326 325 326 327 327 330 331 329 328 326 325 325 325 326 326 327 327 326 328 330 330 331 332 333 334 334 336 335 336 334 332 331 328 327 327 327 326 325 325 323 323 323 323 322 323 323 323 322 320 324 332 336 337 339 337 335 335 334 333 334 337 338 338
314 314 317 321 324 325 327 329 331 333 333 333 332 333 333 333 331 327 325 325 327 329 329 328 328 329 330 331 331 331 331 330 329 327 327 328 329 329 330 330 331 332 332 333 333 334 335 335 336 335 336 335 333 331 328 327 327 327 328 327 327 325 324 323 323 323 323 323 323 323 323 324 330 334 334 335 334 334 334 331 327 328 335 339 338
314 314 314 317 321 323 326 328 329 331 332 332 332 332 332 332 331 328 326 326 328 330 330 330 329 330 331 331 331 331 331 332 332 330 329 329 329 329 330 331 331 332 333 333 334 335 335 335 335 335 335 334 333 330 327 327 327 327 328 328 328 327 326 326 325 325 324 324 324 323 324 324 328 333 334 330 328 327 327 324 318 316 324 332 336
315 314 313 314 316 320 324 326 328 329 329 331 332 332 331 331 331 330 329 328 328 330 331 331 330 330 331 331 332 332 332 333 333 333 331 330 330 328 327 329 330 331 334 334 334 336 335 335 336 335 334 333 331 330 329 328 327 328 328 329 329 328 327 327 326 326 326 325 325 324 324 324 325 330 335 333 329 324 322 322 320 316 314 318 326
316 314 314 314 314 317 321 323 324 327 328 329 330 329 329 329 330 330 330 329 328 329 331 331 330 331 332 332 333 333 333 334 334 333 331 329 329 327 326 326 327 327 332 335 335 336 335 335 336 335 334 332 331 331 330 329 329 328 328 329 328 329 328 327 327 326 326 326 326 325 324 324 323 325 332 335 334 330 326 326 327 325 322 318 318
317 314 315 314 313 315 319 321 320 322 326 327 327 326 326 327 328 329 328 328 327 328 331 331 330 331 333 333 333 333 334 333 333 333 330 328 327 327 327 326 325 324 328 333 335 335 334 335 335 335 333 332 331 330 330 329 329 328 328 328 328 328 328 327 326 326 326 326 326 325 324 324 323 322 327 333 335 334 330 328 328 328 328 327 325
318 315 315 314 314 314 316 319 318 320 323 325 325 325 325 327 328 327 325 325 326 328 331 332 331 332 332 332 332 333 334 332 332 333 330 328 327 327 327 326 326 324 324 327 331 333 334 334 333 333 333 331 329 326 325 326 326 326 326 326 326 326 326 326 326 326 326 326 326 325 325 323 324 322 324 330 332 333 330 327 326 325 326 327 328
318 316 315 315 314 314 315 317 318 321 323 323 322 322 324 326 327 327 325 324 327 328 331 331 331 330 329 329 329 331 333 331 330 330 328 326 325 325 325 325 324 323 323 323 324 329 331 329 328 328 328 326 322 319 318 319 320 321 322 323 323 324 324 324 324 325 324 325 325 324 324 323 324 323 323 328 330 332 331 327 327 326 324 324 325
319 317 315 315 314 314 315 317 318 321 322 320 320 321 322 323 325 327 326 325 327 328 328 329 329 329 327 325 325 328 329 327 326 324 323 321 319 318 319 319 319 319 319 319 319 320 322 321 320 320 318 316 314 313 313 313 314 314 315 316 317 319 320 321 322 323 323 323 323 323 323 323 323 323 323 326 328 331 331 327 326 325 324 324 323
318 317 315 315 315 315 316 317 318 319 319 317 318 321 322 322 324 325 323 322 322 323 324 325 326 326 324 322 321 322 321 320 319 317 317 316 313 313 313 314 314 314 314 314 314 314 314 314 314 313 312 312 311 311 311 311 311 311 311 311 312 313 314 315 316 318 320 321 322 322 322 323 324 324 324 325 326 328 329 327 326 325 325 324 324
318 318 316 315 316 316 316 316 316 317 315 315 316 317 320 321 321 319 317 316 316 317 318 319 320 319 318 318 317 316 315 314 314 313 312 312 311 312 311 312 312 312 311 311 311 311 311 311 311 310 310 310 310 309 309 309 308 308 308 308 309 309 310 310 311 312 314 315 317 319 321 322 323 325 325 326 327 327 328 328 328 328 328 327 327
318 317 316 315 315 316 315 315 315 315 314 314 314 315 317 317 316 314 313 313 313 314 314 314 315 314 315 314 314 313 313 312 312 311 311 311 311 311 310 310 310 310 310 309 309 309 309 308 308 307 307 306 306 305 305 305 305 305 305 305 305 305 306 306 307 308 309 310 312 314 316 319 322 324 325 326 327 328 328 328 329 332 331 328 329
318 317 316 315 314 315 315 314 314 314 313 313 313 313 315 313 313 313 312 312 312 313 312 313 312 312 312 312 311 311 311 311 310 310 310 309 309 308 308 308 307 307 306 306 306 305 305 304 304 304 304 304 304 304 304 304 304 304 304 304 304 304 304 304 305 305 305 306 307 309 311 314 317 320 322 324 325 326 327 325 327 330 329 328 329
317 317 316 315 314 315 314 314 314 313 313 313 313 313 313 312 312 312 312 312 312 312 312 311 311 310 310 310 310 309 309 309 309 308 307 307 306 305 305 305 304 304 304 304 304 303 303 303 303 303 304 304 304 304 304 304 304 304 304 304 304 304 304 304 304 304 304 304 304 305 307 309 312 315 317 319 321 322 323 322 324 325 324 325 328
318 317 316 315 314 314 314 314 313 313 313 313 313 313 313 312 312 312 312 312 311 311 310 310 309 309 308 309 308 308 308 307 307 306 305 304 304 304 303 303 303 303 303 303 303 303 303 303 303 303 304 304 304 304 305 305 305 305 305 305 305 305 304 304 304 304 304 304 304 304 304 305 307 309 311 314 315 317 318 318 320 321 321 321 326
317 317 316 316 315 314 314 314 313 313 313 313 313 313 313 312 312 311 311 310 310 309 309 308 308 308 307 307 307 306 306 305 304 304 304 303 303 303 303 303 303 303 303 303 303 303 303 303 303 304 304 304 305 305 305 306 306 306 306 306 305 305 305 305 305 304 304 304 304 304 304 303 304 305 306 308 310 312 313 314 315 316 317 318 323
317 317 317 316 315 314 314 314 313 313 313 313 313 313 312 312 311 310 310 309 309 309 308 308 307 307 306 305 305 304 304 304 304 303 303 303 303 303 303 303 303 303 303 303 303 304 304 304 305 305 305 305 305 305 306 306 306 306 306 306 306 306 306 305 305 304 304 304 304 304 304 304 303 303 304 305 305 307 309 310 311 313 315 317 319
316 316 316 316 315 314 314 314 313 313 313 313 313 312 312 311 310 309 309 309 309 308 308 307 306 305 305 304 304 303 304 304 303 303 303 303 303 303 304 304 304 304 304 304 304 304 305 305 306 306 306 306 306 306 305 305 305 305 305 305 305 305 305 305 305 305 304 304 304 304 304 304 304 303 303 303 304 304 305 306 307 310 315 317 318
315 316 316 316 315 315 314 314 313 313 313 313 313 312 312 310 309 309 309 309 308 308 307 306 305 304 304 304 304 303 303 303 303 303 304 304 304 304 304 304 304 304 304 305 305 306 306 306 306 305 305 305 305 305 305 305 305 305 305 305 305 305 305 304 304 304 304 303 303 304 303 304 303 303 303 303 303 303 304 304 305 307 311 314 316
315 315 315 316 315 315 314 314 313 313 313 313 313 312 311 310 309 309 309 309 308 307 306 305 304 304 303 303 303 304 304 303 304 304 304 304 304 304 304 304 304 304 305 306 306 306 306 305 305 305 305 305 305 304 304 304 304 305 305 305 305 304 304 304 304 304 303 303 303 303 303 303 303 303 303 303 303 303 303 303 303 304 305 307 309
315 314 315 315 315 315 314 314 313 313 313 313 312 312 311 310 309 309 309 308 308 307 306 305 304 304 304 304 304 304 304 304 304 304 304 304 304 304 304 304 305 305 306 306 306 305 305 305 304 304 304 304 304 304 304 304 304 304 304 304 304 304 304 304 304 303 303 303 303 302 302 303 302 303 303 303 303 303 303 302 302 302 302 303 303
315 314 314 314 315 315 314 314 313 313 313 312 312 312 311 310 309 309 309 308 308 307 306 305 304 304 304 304 304 304 304 304 304 304 304 304 304 304 304 305 305 306 305 305 305 304 304 304 304 304 304 304 303 304 303 303 304 304 304 304 304 304 304 304 304 303 303 302 302 302 302 302 302 302 302 302 302 302 302 302 302 302 302 302 302
316 315 315 314 315 314 314 314 313 313 313 312 312 311 311 310 309 309 308 308 308 307 305 304 304 304 304 304 304 304 304 304 304 303 303 304 304 304 304 305 305 305 305 305 304 304 304 304 303 303 303 303 303 303 303 303 303 303 303 303 304 304 304 304 303 303 303 302 302 302 301 301 301 301 302 302 302 302 302 302 302 302 302 302 302
316 316 315 314 314 314 315 314 314 314 313 312 312 311 311 309 309 308 308 308 308 307 305 304 303 303 303 304 304 304 304 304 304 303 303 303 304 304 304 305 305 305 305 304 304 303 303 303 303 303 303 303 303 303 303 303 303 303 303 303 304 304 304 304 303 303 303 302 302 301 301 301 301 301 301 301 301 301 301 302 302 302 302 302 302
317 316 316 315 315 314 314 314 314 314 313 313 312 311 311 310 309 309 308 308 308 307 305 304 303 303 303 303 304 304 304 303 303 303 303 303 303 303 304 304 304 305 304 304 304 303 303 303 303 303 303 303 303 303 302 303 303 303 303 303 304 304 304 303 303 303 302 302 302 301 301 301 301 300 300 301 301 301 301 301 301 301 302 302 302
316 317 316 316 315 315 314 314 314 314 313 313 312 312 311 310 310 309 308 308 308 307 305 304 303 304 303 304 304 304 304 304 303 303 303 303 303 303 303 304 304 304 304 304 303 303 303 303 303 302 302 302 302 302 302 302 303 303 303 303 304 304 304 303 303 303 302 302 301 301 301 300 300 300 300 300 300 300 300 300 301 301 301 301 301
316 316 316 316 316 315 314 314 314 314 314 313 313 312 311 311 310 309 309 308 308 308 306 304 304 304 304 304 304 304 304 303 303 303 303 303 303 303 303 303 304 304 303 303 303 303 303 302 302 302 302 302 302 302 302 302 302 303 303 303 303 303 304 303 303 302 302 301 301 300 300 300 300 300 300 300 300 300 300 300 300 300 300 301 301
316 316 316 316 316 315 315 314 314 314 314 313 313 312 312 311 310 309 309 309 308 308 307 305 304 304 303 304 304 303 303 303 303 303 303 303 303 303 303 303 303 303 303 303 303 303 302 302 302 302 302 302 302 302 302 302 302 302 303 303 303 303 303 303 303 302 302 301 301 300 300 300 299 299 299 299 299 299 299 299 300 300 300 300 300
316 316 316 316 316 316 315 315 314 314 314 313 313 312 312 311 311 310 309 309 309 308 308 306 304 304 303 303 303 303 303 303 302 302 302 302 302 302 302 302 302 303 303 303 303 303 302 302 302 302 302 301 302 302 302 302 302 302 302 303 303 303 303 303 303 302 302 301 300 300 300 299 299 299 299 298 298 298 299 299 299 300 301 300 300
315 315 316 316 316 315 315 315 314 314 314 314 313 313 312 312 311 310 310 309 309 308 308 307 305 304 303 303 303 303 303 303 302 302 302 302 302 302 302 302 302 302 302 302 303 302 302 302 302 302 301 301 302 301 302 302 302 302 302 302 302 303 303 303 303 302 301 301 300 300 299 299 299 299 298 298 298 298 298 298 299 300 301 300 299
315 315 315 315 315 315 315 315 315 314 314 314 314 313 312 312 311 310 310 309 309 308 308 308 306 304 303 303 303 303 303 302 302 302 302 301 302 302 302 302 302 302 302 302 302 302 302 302 301 301 301 301 301 301 301 301 302 302 302 302 302 302 303 303 302 302 301 300 300 299 299 299 299 299 298 298 298 298 298 298 298 299 300 299 298
315 315 315 315 315 315 315 315 315 314 314 314 313 313 313 312 311 311 310 309 308 308 308 308 307 305 303 303 302 302 302 302 302 301 301 301 301 301 302 302 302 302 302 302 302 302 301 301 301 301 301 301 301 301 301 301 301 301 302 302 302 302 302 303 303 302 302 301 300 299 299 299 299 298 298 298 297 297 297 297 297 297 298 298 298
315 315 314 315 315 315 315 315 315 314 314 314 314 313 313 313 312 311 310 309 308 308 308 308 307 306 304 303 302 302 302 302 302 301 301 301 301 301 301 301 301 302 302 301 301 301 301 301 301 301 301 301 301 301 301 301 301 301 301 301 302 302 302 302 302 302 302 301 300 299 299 298 298 298 298 297 297 297 297 297 297 297 297 297 297
315 314 314 315 314 314 315 315 315 315 314 314 314 313 313 313 312 311 310 309 308 308 308 308 307 307 306 304 302 302 301 301 301 301 301 300 300 300 300 301 301 301 301 301 301 301 301 301 300 300 301 301 301 301 301 301 301 301 301 301 301 301 302 302 302 302 301 300 300 299 298 298 298 297 297 297 297 297 297 297 297 297 296 296 296
315 314 315 314 314 314 314 314 315 314 314 314 314 314 313 313 313 312 311 310 309 308 308 308 308 307 306 305 303 302 301 301 301 301 301 300 300 300 300 300 300 301 301 300 300 300 300 300 300 300 300 301 301 301 301 301 301 301 300 301 301 301 301 302 301 301 300 300 299 298 298 297 297 297 297 297 297 296 296 296 296 296 296 296 296
316 315 315 314 314 314 314 314 314 315 314 314 314 314 314 313 313 312 312 311 310 309 308 308 308 307 306 306 304 302 301 301 301 300 300 300 300 300 300 300 300 300 300 300 300 300 300 300 300 300 300 300 300 300 300 300 300 300 300 300 300 301 301 301 301 301 300 299 298 297 297 297 297 296 296 296 296 296 296 296 296 296 296 296 296
316 316 315 315 315 314 314 314 314 314 314 314 314 314 314 313 313 312 312 311 310 309 308 308 307 307 306 306 305 304 302 301 300 300 300 300 300 300 300 300 300 300 299 299 299 299 299 300 300 300 300 300 300 300 300 300 300 300 300 300 300 300 301 301 301 300 299 298 297 297 296 296 296 296 296 296 296 296 296 296 296 296 296 296 296
316 316 315 315 315 314 314 314 314 314 314 314 314 314 314 313 313 312 312 311 311 309 308 308 307 307 306 306 306 305 303 301 300 300 300 300 299 299 299 299 299 299 299 299 299 299 299 299 299 300 300 300 300 300 300 300 300 300 300 300 300 300 300 301 300 299 298 297 297 296 296 296 296 296 296 296 295 295 295 295 296 296 296 296 296
316 315 315 315 315 315 314 314 314 314 314 314 314 313 313 313 313 312 311 311 311 309 308 307 307 307 307 306 306 305 305 303 301 300 300 299 299 299 299 299 299 299 299 298 298 298 299 299 299 299 299 300 299 300 299 299 299 299 299 299 299 300 300 300 300 299 297 297 296 296 296 296 295 295 295 295 295 295 295 295 295 295 295 296 296
315 314 314 314 314 315 314 314 314 314 314 314 314 313 313 312 312 312 311 311 311 310 309 308 307 307 307 307 306 305 305 304 303 301 300 299 299 299 299 299 299 299 298 298 298 298 298 299 299 299 299 299 299 299 299 299 299 299 299 299 299 299 299 300 299 298 297 296 296 296 295 295 295 295 295 295 295 295 295 295 295 295 295 295 295
314 314 314 314 314 314 315 315 314 314 314 314 314 313 313 313 312 312 312 312 311 311 310 309 308 308 308 307 306 305 305 305 304 303 300 299 299 299 299 299 299 299 298 298 298 298 298 298 298 299 299 299 299 299 299 299 299 299 299 299 299 299 299 299 298 297 297 296 295 295 295 295 295 295 295 295 295 295 295 295 295 295 295 295 295
314 314 314 314 314 314 314 314 314 313 313 314 314 314 314 314 313 313 313 312 312 311 311 310 310 309 308 307 306 305 305 304 304 303 302 300 299 299 299 299 299 299 298 298 297 297 297 298 298 298 299 299 299 299 299 299 299 299 299 298 298 298 298 298 298 297 296 296 295 295 295 294 295 295 295 295 295 295 295 295 295 295 295 295 295
314 314 314 314 314 314 314 314 313 314 314 313 313 314 314 313 313 313 312 312 312 311 311 311 310 309 308 307 306 305 304 304 304 303 302 301 299 299 299 299 299 298 298 298 298 297 297 298 298 298 298 298 298 298 298 298 298 298 298 298 298 298 298 298 298 297 296 296 295 295 295 294 294 294 294 294 294 294 295 295 295 295 295 295 295
313 314 314 314 314 314 314 314 314 314 314 314 314 313 313 312 312 312 311 311 311 311 310 310 309 308 308 307 306 306 305 304 303 303 302 301 300 299 299 298 298 298 298 298 298 298 298 298 298 298 298 298 298 298 298 298 298 298 298 298 298 297 298 298 298 297 296 296 296 296 296 295 294 294 294 294 294 294 294 295 295 295 295 295 295
314 314 314 314 314 314 313 313 313 313 313 313 313 312 312 311 311 310 310 310 309 309 309 310 309 308 308 308 307 307 306 305 304 303 302 301 300 299 299 298 298 298 298 298 298 297 297 297 298 298 298 298 298 298 298 298 298 298 298 298 298 298 298 297 297 296 296 297 296 296 295 295 294 294 294 294 294 294 294 294 294 295 295 295 295
314 314 313 313 313 312 313 312 312 313 313 312 312 312 311 311 311 310 310 310 310 310 310 310 310 309 309 309 308 307 307 306 304 303 302 301 301 300 299 298 298 298 298 298 297 297 297 297 297 297 297 298 298 298 298 298 298 297 298 298 298 298 297 297 296 296 297 297 296 295 295 295 294 294 293 293 294 294 294 294 294 294 294 294 294
313 313 313 313 313 312 312 312 312 312 312 312 312 311 311 311 311 311 311 311 311 311 311 311 310 310 309 309 308 307 307 306 305 304 303 302 301 300 299 298 298 298 298 297 297 297 297 297 297 297 297 297 297 297 297 297 297 297 297 297 297 298 297 297 297 296 296 296 296 295 295 295 294 294 293 293 294 294 293 294 294 294 294 294 294
313 313 313 313 312 312 312 312 312 311 311 312 311 311 311 311 311 310 310 311 311 311 311 310 310 310 309 308 308 307 307 306 305 304 303 302 301 301 300 299 298 298 297 297 297 297 297 296 296 296 296 297 297 297 297 297 297 297 297 297 297 297 297 297 297 297 296 296 296 296 295 295 294 294 293 293 294 293 293 293 294 294 293 293 293
313 313 313 313 312 311 312 311 312 311 311 311 311 311 311 311 311 310 310 311 310 310 310 309 309 309 309 308 308 307 307 306 305 304 303 302 302 301 300 299 299 298 297 297 297 296 296 296 296 296 296 296 297 297 297 297 297 297 297 297 297 297 297 297 297 297 296 296 296 295 295 294 294 294 293 293 293 293 293 293 293 293 293 293 293
313 313 312 313 312 311 311 311 312 312 311 311 311 311 310 310 310 310 310 310 310 309 309 309 308 308 309 308 308 307 307 306 306 305 304 303 302 301 301 300 300 299 298 297 297 297 296 296 296 296 296 296 296 296 297 297 297 297 297 297 297 297 297 297 297 297 296 296 296 295 294 294 294 294 293 293 293 293 293 293 293 293 292 292 293
313 313 313 313 312 312 312 311 311 311 310 311 310 310 310 310 310 310 310 310 309 309 309 309 309 308 308 308 308 308 307 307 306 305 305 304 303 302 301 301 300 299 298 298 297 297 297 296 295 295 295 296 296 296 296 296 296 296 296 296 296 297 296 297 297 297 297 296 296 295 294 294 294 294 294 293 293 293 293 293 292 292 292 292 292
Wind_Speed
20 20 21 20 20 17 17 16 15 14 14 14 13 13 12 11 11 10 9 8 7 7 7 7 7 6 4 4 4 4 5 6 6 6 7 7 7 7 6 6 5 5 4 4 4 5 5 4 4 3 4 4 3 3 3 4 4 4 4 4 4 5 5 6 6 7 7 7 7 7 7 7 7 5 4 4 4 4 5 5 6 6 6 6 6
17 20 21 21 21 19 17 16 15 14 14 14 14 14 13 12 11 9 9 8 8 7 7 7 6 6 5 5 4 4 5 5 6 6 7 7 7 7 7 6 6 6 5 4 4 5 5 5 5 5 5 4 3 2 2 3 2 3 3 3 3 3 4 4 5 5 6 7 7 8 7 7 6 4 3 3 4 4 4 5 5 5 5 5 5
15 19 21 21 21 20 18 17 17 16 15 14 14 14 14 13 12 10 10 9 9 8 7 7 6 6 6 6 5 5 6 6 6 7 7 7 7 7 7 6 7 6 5 5 5 5 6 7 7 7 6 5 4 3 2 2 1 1 2 2 2 2 3 3 3 3 4 5 5 6 7 6 5 4 3 4 4 3 3 4 4 4 4 4 4
16 18 20 21 21 21 20 18 17 17 17 15 15 15 14 14 13 12 11 10 10 9 9 8 7 7 7 7 7 7 8 8 8 8 8 8 7 7 7 7 7 7 6 5 6 7 7 8 8 8 7 5 4 3 2 2 2 1 0 1 1 1 1 1 1 1 1 2 3 3 4 4 3 3 3 3 4 4 3 3 4 4 4 4 4
15 18 19 20 21 21 21 19 18 18 18 17 16 15 14 14 14 13 13 12 11 11 10 9 9 8 8 9 9 10 10 11 10 10 9 8 7 7 7 6 6 7 7 6 7 7 7 8 8 8 6 5 4 3 3 2 2 2 2 1 2 2 2 1 1 2 2 2 2 1 1 1 2 2 2 3 3 3 3 3 3 4 4 4 4
15 18 18 19 20 21 21 20 18 18 17 17 16 15 15 15 15 15 14 13 12 12 11 11 11 11 11 11 12 12 12 12 12 11 10 8 7 7 7 7 6 7 8 8 8 7 7 6 5 6 6 5 4 4 4 5 4 4 4 4 4 4 4 4 4 4 4 4 4 3 2 1 0 0 1 2 3 4 4 4 4 3 3 3 4
15 17 18 18 19 20 21 21 19 17 17 17 16 15 16 16 15 15 15 14 13 14 13 13 13 13 13 14 14 14 14 13 12 12 11 10 9 8 8 8 8 8 8 8 8 6 5 4 4 5 6 6 6 8 9 9 8 8 8 8 8 7 7 7 7 7 7 6 6 5 4 4 2 2 1 1 3 5 6 5 6 5 4 4 3
15 17 18 19 19 20 20 20 19 17 18 17 16 16 16 16 16 15 15 15 15 15 15 15 15 15 16 15 15 16 15 14 14 14 14 13 11 10 10 11 10 10 9 9 9 9 8 7 8 9 10 11 13 13 13 12 12 11 11 11 11 11 10 10 10 9 9 8 8 7 6 6 5 4 2 2 3 5 6 6 6 7 6 5 4
15 17 19 20 19 20 20 20 19 18 18 17 16 16 17 17 17 16 15 16 16 17 17 17 17 17 17 17 17 18 18 18 18 17 16 15 14 13 12 12 12 11 11 11 12 12 13 13 14 14 14 15 15 15 14 14 13 13 13 13 13 13 13 13 12 12 11 11 10 10 9 8 7 6 5 4 4 4 6 6 7 8 8 7 7
15 17 19 20 21 20 20 20 19 19 18 17 17 17 18 18 18 17 17 17 17 18 18 18 18 19 19 19 19 20 20 20 19 18 17 15 15 14 13 13 12 12 12 12 13 13 14 15 15 15 14 14 14 14 13 13 13 13 13 13 13 13 14 14 14 14 13 13 13 12 11 10 9 8 7 6 5 5 6 7 7 8 8 8 8
16 17 19 21 21 21 20 20 20 19 18 18 18 18 19 19 19 18 18 18 18 18 19 19 19 20 20 19 20 20 20 19 18 17 16 15 14 12 12 12 11 12 11 11 12 12 12 12 12 12 12 11 11 11 11 10 10 10 10 11 11 12 12 13 13 13 14 14 14 14 13 12 11 10 9 7 6 7 7 7 7 6 7 6 6
17 18 20 21 22 21 21 20 20 19 19 19 19 19 19 19 19 18 18 18 18 19 19 19 20 19 19 19 19 19 19 18 16 15 14 13 11 10 10 10 10 10 11 10 10 10 10 10 10 9 9 8 8 8 7 7 7 7 7 7 8 9 9 10 11 12 12 13 13 14 14 14 13 13 13 11 10 9 9 9 7 6 7 7 7
17 18 20 21 21 21 20 20 20 20 19 20 20 21 21 19 18 18 18 19 19 20 19 19 19 18 18 18 18 17 17 16 14 12 11 10 9 9 9 9 9 9 9 9 8 8 7 7 6 6 5 5 5 5 5 5 5 6 6 6 6 6 7 7 8 9 10 11 12 13 14 14 15 15 16 16 15 14 13 12 11 10 9 8 9
17 18 20 21 21 21 20 20 19 19 19 19 20 21 21 20 19 18 19 20 20 20 19 18 17 17 17 17 16 15 15 14 12 11 10 9 8 9 9 8 8 7 7 6 6 5 4 4 3 3 3 4 4 4 5 5 5 5 6 6 6 6 6 6 7 7 8 9 10 11 13 14 15 16 17 18 18 18 17 15 14 14 13 12 12
18 18 19 21 22 22 21 21 20 20 19 19 19 19 19 19 18 18 19 20 20 20 18 17 17 16 16 15 15 14 14 13 12 11 9 9 8 8 7 6 6 5 5 4 4 4 3 3 2 3 3 3 3 4 5 5 5 6 6 6 7 7 7 7 7 7 7 8 8 9 10 12 14 16 18 19 19 19 19 18 16 16 16 16 15
19 20 20 21 22 23 23 22 21 20 20 19 19 18 18 18 18 19 19 19 19 18 17 17 16 16 15 14 14 14 13 12 11 10 9 8 7 7 6 5 5 5 4 4 3 3 3 2 2 2 3 3 3 4 4 5 5 5 6 6 6 7 7 7 7 8 8 8 8 8 9 10 12 15 17 18 19 19 19 20 19 19 18 17 17
20 22 22 22 23 24 24 23 22 21 21 20 20 19 19 19 19 20 19 19 18 18 17 16 16 15 15 14 14 14 12 11 10 9 8 8 7 6 6 5 5 4 4 4 3 3 2 2 2 3 3 3 3 4 4 4 4 4 5 5 5 6 6 7 7 7 8 8 8 9 9 9 10 12 15 17 18 19 19 20 20 20 19 19 18
21 23 23 24 25 25 25 24 23 23 22 22 21 20 20 19 20 20 19 19 18 18 17 16 16 16 15 14 14 13 12 10 10 9 8 8 7 7 6 6 5 5 4 4 3 3 3 2 2 2 2 2 3 3 4 4 4 4 4 4 4 4 5 5 6 7 7 8 8 9 9 9 10 11 13 15 16 17 18 18 19 19 20 20 19
22 23 24 25 26 26 27 26 25 25 24 23 22 21 21 20 20 20 20 19 19 18 17 17 16 16 15 15 14 12 11 11 10 9 9 8 7 7 6 6 6 5 5 5 4 4 3 3 2 2 2 2 2 3 3 4 4 5 5 5 5 5 5 5 5 6 7 7 8 9 10 10 11 11 13 14 15 16 16 17 17 18 20 21 21
23 25 26 27 27 28 28 28 27 27 27 25 24 23 22 22 21 22 21 20 19 19 18 17 17 17 16 15 14 13 12 11 11 10 9 8 8 7 7 7 7 6 6 6 6 5 4 3 3 2 2 2 3 4 5 5 6 6 7 7 6 6 6 5 6 6 7 7 8 9 10 10 11 12 13 13 14 15 15 15 16 17 18 20 22
25 26 27 28 29 29 30 29 29 29 29 27 25 24 23 23 23 23 23 22 21 20 19 19 18 17 16 15 15 14 13 12 11 10 10 9 9 9 8 8 8 8 7 7 6 5 5 3 3 2 3 4 5 5 6 7 7 8 8 8 8 8 7 7 7 6 7 8 8 9 10 11 11 12 12 13 13 13 14 13 14 15 16 17 18
27 27 28 29 30 30 31 31 31 31 30 28 27 26 26 25 25 25 24 23 22 22 21 20 19 18 17 17 16 15 14 13 12 11 11 10 10 10 10 9 9 9 8 7 7 6 5 4 3 3 4 5 6 6 7 8 8 9 9 9 9 9 9 9 8 8 8 8 9 10 11 11 12 12 12 13 13 12 12 12 12 13 13 14 15
28 27 28 29 30 31 32 32 32 32 31 30 29 28 28 27 27 27 26 25 24 23 22 21 21 20 19 19 18 17 16 14 14 13 12 12 12 11 10 10 9 9 9 8 7 6 5 4 4 4 5 6 7 8 8 9 9 10 10 10 11 11 11 11 10 9 9 9 9 10 11 12 13 13 13 13 13 12 12 12 12 13 13 13 14
27 27 28 30 31 31 31 32 33 33 33 32 31 30 30 29 29 28 28 26 25 25 24 23 23 22 21 21 20 19 17 16 15 14 14 13 13 12 11 10 10 9 9 9 8 6 5 5 5 5 6 7 8 9 9 10 10 11 11 11 12 12 11 11 11 11 10 10 10 11 11 12 13 13 14 13 13 13 13 13 13 13 14 14 14
28 28 29 30 30 30 31 32 33 34 34 33 33 32 32 31 31 30 30 28 27 26 25 25 25 24 23 22 21 20 19 18 17 16 15 14 13 12 12 11 11 11 10 9 8 7 7 6 6 6 7 8 9 9 10 11 11 12 12 12 12 12 12 12 11 11 10 10 10 11 11 12 13 13 14 14 14 14 14 14 14 14 14 14 15
30 31 30 30 31 31 31 32 33 34 34 35 34 34 34 33 32 32 31 31 30 28 27 27 26 26 25 24 24 22 21 20 18 17 16 15 14 14 13 12 12 12 11 10 10 9 8 8 7 8 8 8 9 10 10 11 12 12 13 13 13 13 13 13 12 11 11 10 10 10 11 12 12 13 14 14 14 14 14 14 14 14 14 15 15
31 32 31 31 32 32 32 32 33 34 35 35 36 36 35 35 34 33 33 32 31 30 29 29 28 27 27 26 26 24 23 21 20 19 17 16 15 15 14 14 13 13 12 12 12 11 10 9 8 8 8 9 9 10 11 11 12 13 13 14 14 14 14 13 13 12 11 10 10 10 11 11 12 13 13 14 15 15 15 14 14 14 14 15 15
33 33 32 32 33 33 33 33 33 35 35 36 37 37 37 37 36 35 35 34 33 32 30 29 29 29 28 28 27 26 24 22 21 20 19 17 16 16 15 15 15 14 14 14 13 12 11 10 9 9 9 9 10 10 11 12 13 13 14 14 14 14 14 14 13 13 12 11 10 10 10 11 12 12 13 14 15 15 15 14 13 13 13 14 15
34 33 32 32 32 33 34 35 35 35 36 37 38 38 38 38 38 38 37 36 35 33 32 31 30 30 30 30 29 28 26 24 23 21 20 19 18 17 16 16 16 16 16 15 14 13 12 11 10 10 10 10 10 11 12 12 13 13 14 14 14 14 14 14 13 13 12 11 11 10 10 11 12 12 13 14 15 15 15 14 13 12 12 13 14
34 33 32 32 32 32 34 35 36 36 36 38 39 39 40 40 39 39 39 38 37 35 34 32 32 31 31 31 30 29 27 26 24 23 21 20 19 18 18 17 17 17 17 16 15 14 13 12 11 11 11 11 12 12 13 13 13 14 14 14 14 14 14 13 13 13 12 11 11 10 10 11 12 12 13 14 14 15 15 14 13 10 10 12 13
35 34 33 33 32 32 33 35 36 36 38 39 39 40 40 40 40 40 40 40 39 37 36 34 33 33 32 32 32 31 29 27 26 24 22 21 20 20 19 18 18 18 17 17 16 15 14 13 12 12 12 12 12 13 13 14 14 14 14 14 14 14 14 14 13 13 12 11 11 10 10 11 11 12 13 13 13 13 13 13 12 11 11 11 11
35 34 33 33 33 33 33 34 35 37 38 39 40 40 41 41 41 41 41 41 40 39 38 36 35 34 34 34 33 32 31 29 27 26 24 22 22 21 20 20 19 19 18 17 16 15 15 14 13 12 12 12 13 14 14 14 14 14 14 14 14 14 14 14 14 13 13 12 11 10 10 10 11 12 12 12 12 11 11 11 12 12 11 11 10
34 33 34 34 33 34 34 34 35 37 39 39 39 40 41 41 42 42 43 42 42 41 40 38 36 35 35 35 35 34 33 31 29 27 25 24 24 23 22 21 20 20 19 18 17 17 16 15 14 13 13 13 14 15 15 15 14 14 14 14 14 14 14 14 14 13 13 12 11 11 11 11 11 12 12 11 11 11 11 11 11 11 10 9 10
34 34 35 33 33 34 34 35 36 38 39 39 39 40 40 41 42 43 43 44 43 43 41 40 38 37 36 36 36 36 34 33 31 29 27 26 26 25 23 22 22 21 20 19 19 18 17 16 15 15 15 15 16 16 15 15 14 14 14 14 14 14 14 13 13 13 13 13 12 11 12 12 11 11 11 11 11 10 10 10 10 10 10 10 10
35 36 34 33 34 34 34 35 36 38 39 39 40 39 40 41 42 43 44 44 44 44 43 42 40 39 38 38 38 37 36 35 33 31 30 28 27 26 25 24 23 22 22 21 20 20 19 18 17 17 17 17 17 16 15 15 14 14 14 14 14 14 13 13 12 12 12 12 12 12 11 11 11 10 10 10 10 9 9 9 9 10 10 10 11
35 35 35 35 35 35 35 36 36 37 38 39 40 40 40 41 42 43 44 44 45 46 45 43 42 41 40 39 39 38 37 36 35 33 32 31 29 28 26 26 25 24 23 23 22 22 20 19 19 18 18 18 17 16 14 14 14 14 14 14 14 14 13 13 12 11 11 11 11 11 10 10 9 9 8 8 9 9 9 10 9 10 10 10 11
37 35 36 37 36 36 36 36 36 36 37 38 39 40 41 42 42 43 44 45 46 47 46 45 44 43 42 41 40 39 39 38 37 36 34 33 31 30 28 27 26 25 25 25 24 23 22 21 20 20 19 18 17 15 14 14 14 14 14 14 14 14 13 13 12 11 10 10 10 10 9 9 8 7 8 8 9 9 9 10 9 10 10 10 11
40 38 38 38 37 37 37 37 37 37 37 38 39 41 42 43 43 43 44 46 47 48 47 46 46 45 44 42 41 40 40 39 38 37 36 35 33 32 30 29 28 27 27 26 25 25 24 23 22 21 20 19 17 16 15 14 14 14 14 14 14 14 13 12 12 11 9 9 10 9 9 8 8 7 7 7 8 8 9 9 9 9 9 10 10
41 40 39 38 38 38 38 38 38 39 38 38 40 42 43 44 45 45 46 47 48 50 49 48 48 46 45 43 42 42 41 41 40 39 38 37 36 34 32 31 30 29 29 28 27 27 26 25 23 22 21 19 18 17 15 14 14 14 14 14 14 14 13 12 11 10 9 9 9 9 9 8 7 7 6 6 7 7 8 8 8 9 9 9 9
39 39 38 38 38 38 38 39 39 40 40 41 43 44 45 46 46 47 48 48 49 50 50 50 49 47 46 45 44 44 43 42 41 41 40 39 37 36 34 33 31 31 30 30 29 28 27 26 24 23 22 20 19 18 16 15 14 13 13 14 13 13 12 11 10 9 9 9 9 8 8 8 7 7 7 7 7 7 7 8 8 8 8 8 9
37 36 36 36 36 36 38 39 39 41 42 44 44 45 46 46 46 47 47 48 48 50 50 50 50 48 47 47 47 46 45 44 43 43 41 40 39 37 35 34 33 32 31 30 30 29 28 26 25 24 23 22 20 19 17 15 14 14 13 12 12 12 12 11 10 9 10 10 8 6 7 7 7 6 7 7 6 6 6 7 7 7 8 8 8
34 33 33 32 33 34 36 38 39 41 43 45 45 46 46 45 44 43 43 45 46 48 49 50 50 49 49 49 49 48 47 46 45 44 42 42 40 38 37 36 35 33 32 31 31 30 29 28 28 27 25 23 21 19 18 17 15 14 13 12 12 11 11 11 10 11 13 13 10 7 7 8 7 6 6 6 6 6 6 7 7 7 7 7 7
32 31 30 29 30 32 34 36 38 40 41 43 45 46 46 45 44 42 42 43 45 46 48 48 49 50 51 51 50 49 49 48 46 45 44 43 41 39 38 37 36 35 34 33 33 33 32 31 30 28 26 24 22 21 20 18 16 15 13 11 10 10 10 11 12 12 13 15 14 13 12 11 8 6 6 6 6 6 7 7 7 6 6 5 5
32 31 30 29 29 30 31 33 35 37 38 41 43 44 46 46 45 44 43 43 44 46 47 49 51 52 52 51 51 51 50 49 48 46 45 43 42 40 39 38 37 36 35 35 34 34 33 32 31 30 28 26 24 23 21 19 18 16 12 10 9 9 10 11 10 11 11 13 15 14 13 12 9 7 7 7 7 7 7 7 7 6 5 5 4
32 31 29 29 28 28 29 31 33 35 37 39 42 44 46 46 46 45 45 46 46 47 48 51 53 53 53 51 51 51 51 51 50 48 46 44 42 41 41 40 39 38 37 36 35 35 34 33 32 31 30 28 26 24 23 21 20 18 15 13 11 9 9 8 8 9 11 12 12 10 10 11 9 8 8 9 9 8 8 7 6 5 4 4 3
28 27 27 27 27 27 28 30 32 34 36 38 41 44 45 46 47 47 47 48 48 49 49 50 51 52 51 50 50 50 51 51 51 49 47 45 44 43 42 41 40 40 38 37 36 36 36 35 33 32 30 29 27 26 25 23 21 20 19 17 15 13 11 10 10 10 11 11 11 10 10 10 9 8 9 10 9 9 8 7 6 5 3 3 3
25 23 23 23 25 26 27 29 31 32 34 37 40 42 44 45 46 47 47 47 47 47 47 46 47 47 47 48 48 49 51 51 51 50 49 47 46 45 43 43 42 41 40 39 38 37 36 35 34 33 31 30 29 28 27 25 23 22 20 18 17 15 15 15 14 13 11 12 12 12 11 10 9 9 10 10 9 9 8 8 7 4 3 2 2
24 20 20 20 22 24 26 28 30 32 34 36 38 40 42 43 44 45 45 46 46 45 44 44 44 45 46 47 48 49 49 50 50 50 49 49 48 46 45 44 43 42 41 40 39 38 37 37 36 35 33 32 32 30 28 27 25 23 21 19 17 16 16 16 16 15 14 14 14 13 12 11 10 10 10 10 9 9 9 8 7 4 2 2 3
25 22 20 19 21 22 24 27 29 31 34 36 38 39 40 41 42 43 44 44 44 44 44 44 44 44 45 46 47 47 47 48 49 49 50 50 49 47 46 46 45 44 43 42 40 39 39 38 38 37 36 35 33 32 30 29 27 25 23 21 19 18 17 18 18 18 17 16 15 15 13 11 10 11 11 10 10 9 9 8 7 4 3 4 5
27 25 22 20 20 22 24 27 28 31 33 35 37 38 39 39 40 41 42 42 43 45 45 45 45 45 46 46 46 45 45 46 47 48 49 49 49 49 48 47 47 46 45 43 42 41 41 40 40 39 37 36 35 33 32 30 28 26 25 23 22 21 19 19 19 19 18 17 16 16 13 11 12 12 11 11 11 10 9 8 7 5 3 4 6
31 29 28 25 21 22 25 27 29 31 33 35 36 37 37 38 38 39 40 41 42 44 45 45 46 46 47 47 46 45 44 45 46 47 47 48 49 49 49 49 48 47 46 45 44 43 43 42 41 40 39 38 36 34 33 31 30 29 27 26 25 23 22 21 20 19 19 19 18 18 16 14 13 12 10 11 12 11 10 9 8 5 4 5 6
Wind_Direction
195 193 199 200 201 195 186 185 182 184 188 190 189 191 195 199 194 191 192 189 186 178 176 171 167 161 158 158 159 154 148 159 159 160 156 153 151 150 154 154 152 144 141 131 124 119 120 128 118 111 91 77 77 83 102 104 97 91 86 82 82 78 79 80 79 76 75 74 68 61 53 64 73 65 60 56 49 53 65 60 55 56 45 41 36
195 192 198 200 200 197 195 191 187 189 191 193 193 198 200 207 206 200 198 197 195 187 185 178 173 165 165 175 175 165 159 163 159 162 157 153 152 152 154 156 157 149 151 149 146 146 152 153 152 157 147 150 155 152 130 106 98 91 82 75 76 73 74 75 76 73 70 71 69 67 56 59 72 62 38 28 32 42 56 50 41 48 48 41 36
193 191 195 200 201 197 198 195 194 195 197 199 198 204 205 212 215 213 207 203 200 195 196 187 180 174 177 186 184 180 175 172 169 165 161 161 158 158 159 158 157 151 156 165 165 164 175 179 180 178 177 185 186 189 159 138 153 99 83 84 88 81 80 80 74 68 60 60 62 65 60 61 72 66 42 21 18 22 26 29 29 34 42 34 29
190 192 193 199 203 199 200 197 198 198 201 204 205 209 210 215 216 216 212 206 202 199 199 193 187 184 189 192 188 186 180 178 177 173 173 176 171 171 174 169 162 156 157 168 173 170 183 194 197 193 194 203 202 212 200 194 212 230 204 126 138 131 120 110 93 61 38 26 38 51 57 56 56 53 41 22 14 13 11 18 32 36 36 35 30
189 193 194 197 202 201 202 201 199 199 202 205 209 215 217 219 217 217 213 208 205 202 200 195 194 189 190 192 191 187 183 183 183 187 192 193 189 190 195 190 181 174 166 168 180 183 191 199 205 200 205 215 215 229 238 251 252 261 261 253 243 234 248 255 263 266 273 286 308 337 16 43 38 32 26 5 352 349 348 0 18 32 32 36 39
190 193 197 197 201 202 203 203 202 201 202 205 210 216 219 221 221 223 218 213 208 204 201 197 195 190 190 191 193 192 192 195 197 204 211 218 217 214 213 211 207 198 189 188 193 202 207 209 216 213 219 223 227 254 269 276 273 274 272 269 264 263 266 270 278 278 278 278 281 288 294 293 305 233 2 344 319 315 313 321 337 355 9 19 33
194 194 197 199 200 201 202 203 205 203 203 207 213 216 219 219 220 223 222 217 209 205 202 199 198 195 198 200 203 205 206 209 213 217 226 240 239 234 230 228 228 223 218 218 221 225 223 232 250 239 237 243 262 276 278 276 273 272 270 269 268 267 267 268 273 275 277 279 280 282 285 283 277 240 246 318 286 294 298 298 309 318 331 342 357
196 195 197 199 200 201 199 202 205 204 205 209 213 216 217 217 216 215 218 216 211 209 206 205 206 205 208 213 215 215 216 220 226 231 241 251 247 240 236 236 237 235 233 236 239 238 237 248 255 251 253 262 274 280 280 279 277 276 274 272 270 270 269 270 270 272 274 274 275 276 278 279 277 260 241 272 268 278 286 287 293 301 309 315 322
196 197 197 198 200 200 198 200 202 202 207 209 209 213 215 215 213 213 216 217 215 216 216 215 215 217 220 224 226 225 227 233 238 243 248 250 245 241 239 241 243 244 243 243 245 244 246 251 255 259 264 271 277 281 283 284 284 283 281 279 275 274 272 270 270 270 272 272 274 273 273 272 272 268 253 256 253 264 277 276 279 288 294 296 300
200 198 198 198 199 201 199 198 199 202 207 210 208 209 213 214 213 216 220 223 224 224 226 226 225 227 231 232 233 235 237 241 244 247 248 246 245 245 245 248 251 253 253 252 251 252 253 256 259 263 268 272 277 281 283 285 286 287 286 283 281 278 275 272 270 268 267 268 270 270 270 268 265 263 259 262 258 263 270 268 273 283 289 293 293
203 201 201 201 200 201 200 199 199 202 206 210 212 211 213 214 217 220 223 227 229 229 231 232 233 233 235 237 239 241 243 244 246 248 247 245 247 249 251 254 256 257 257 256 255 256 258 260 264 266 269 272 276 280 283 286 288 289 288 287 285 282 279 275 272 269 267 265 264 263 263 262 259 257 254 257 259 262 264 263 267 273 275 280 286
206 204 203 204 204 204 202 202 202 204 206 209 214 215 217 218 220 223 225 229 231 232 232 231 233 235 235 237 241 243 245 247 248 248 247 246 247 250 252 254 255 256 257 259 260 261 263 266 270 273 275 277 280 285 290 295 296 296 295 293 291 289 286 282 278 274 271 266 262 259 257 256 254 252 251 251 252 251 252 252 250 249 251 251 261
211 207 206 207 208 209 208 207 208 209 210 210 213 216 220 222 222 225 227 229 231 234 233 232 232 234 236 237 242 245 247 250 250 250 249 248 246 246 247 249 250 252 253 255 259 261 265 268 273 278 284 289 295 302 305 308 309 309 308 305 304 301 297 293 290 284 279 272 266 260 256 255 252 250 250 250 250 251 253 252 249 252 255 254 256
217 214 210 211 211 213 213 213 215 216 217 215 215 216 219 223 224 225 227 228 230 234 234 234 234 234 237 239 243 245 248 250 250 249 246 245 244 244 244 243 242 240 240 239 241 243 248 254 262 272 286 298 305 312 313 314 315 313 312 310 308 305 303 300 297 294 289 281 273 266 259 256 254 253 252 252 252 254 258 258 255 257 259 258 257
219 220 218 217 215 216 215 218 220 221 222 220 219 221 221 224 227 227 228 229 230 234 233 233 232 232 236 238 241 242 243 242 242 242 238 237 236 237 235 231 227 222 222 219 221 223 227 232 244 262 279 294 304 309 312 313 314 313 311 309 308 306 305 302 299 296 292 290 285 277 268 260 256 256 256 256 257 256 258 260 259 257 257 256 258
216 220 222 222 220 220 219 221 222 224 225 224 224 226 228 228 228 230 231 231 231 231 230 230 230 231 234 235 236 236 235 234 233 231 226 224 223 223 222 219 218 217 216 216 222 226 236 247 265 283 295 303 309 308 308 309 308 308 307 307 307 306 305 302 300 297 295 294 291 288 281 272 263 260 259 259 260 259 259 260 261 261 260 257 256
216 218 221 222 223 223 224 225 224 225 226 226 228 229 231 231 230 232 233 231 230 230 229 229 229 229 230 230 230 229 228 226 223 219 215 214 214 216 217 219 220 220 221 221 226 230 247 262 280 293 304 310 312 313 313 312 310 307 304 303 302 301 299 297 295 294 293 292 291 290 286 281 273 266 264 262 262 262 261 261 261 261 264 262 258
217 220 220 221 223 224 226 227 226 226 228 228 230 232 233 233 233 234 233 231 231 232 230 228 227 227 227 226 225 223 220 216 214 212 212 213 214 217 217 219 221 222 224 226 230 231 237 244 255 272 286 303 310 319 322 324 324 323 321 315 309 301 294 288 285 284 283 283 283 284 283 282 278 274 270 267 266 265 263 262 261 258 260 264 263
218 221 222 221 222 224 226 227 227 226 228 230 231 232 233 234 234 234 233 233 233 233 231 228 226 226 224 223 222 217 214 211 210 211 213 216 218 220 219 218 220 218 219 220 221 224 224 231 234 250 273 300 316 331 336 340 342 341 341 337 331 321 308 294 284 276 272 271 271 273 275 276 275 275 273 273 272 270 268 266 264 260 259 262 265
218 221 222 223 223 223 226 226 227 226 228 230 232 232 232 234 233 233 233 233 233 233 231 228 226 225 223 221 219 215 213 211 211 214 215 218 219 220 221 220 220 217 216 215 214 218 219 226 239 263 297 322 335 344 347 350 351 351 349 345 341 333 324 311 297 284 274 267 264 263 265 267 269 269 270 273 275 277 278 275 272 268 264 263 264
220 222 222 224 224 224 225 225 226 226 228 229 231 231 232 232 232 231 231 231 231 231 231 228 226 225 222 220 218 216 213 212 213 215 216 217 218 219 220 219 219 218 215 215 214 216 221 234 257 287 315 331 340 346 350 353 353 352 350 347 344 338 331 322 309 296 284 273 266 263 261 263 264 265 266 268 273 277 280 281 280 277 273 270 268
225 224 224 224 225 226 225 225 225 226 228 229 229 230 230 231 231 231 230 230 229 230 230 228 227 224 221 219 217 216 213 214 215 217 218 217 219 219 221 221 220 220 218 218 218 222 232 249 274 300 320 332 340 346 350 353 353 351 350 347 345 342 337 330 321 309 294 282 272 266 263 263 263 263 265 266 269 273 277 280 281 281 280 278 276
231 230 229 227 225 225 226 226 226 226 228 229 229 229 229 230 230 230 229 229 229 229 229 227 226 223 221 219 217 217 215 216 217 218 220 220 223 225 226 226 226 226 224 224 228 235 247 263 285 307 322 333 338 344 348 350 350 349 349 348 346 344 341 335 328 318 305 291 279 270 265 264 263 263 264 265 267 269 273 276 277 278 279 279 280
240 238 233 229 228 227 227 227 227 228 228 229 230 230 230 229 229 229 229 229 229 229 228 226 225 222 220 219 218 217 216 217 218 220 222 224 228 230 230 231 231 230 230 232 237 245 256 271 290 308 319 329 335 340 344 345 347 347 347 347 346 344 341 338 331 323 312 299 287 276 269 265 263 263 263 263 264 265 266 269 270 272 274 277 278
246 241 237 233 231 230 229 228 228 229 229 230 230 231 231 230 229 229 229 229 229 228 226 225 223 222 220 220 219 219 219 218 221 222 224 227 229 230 232 233 233 233 234 238 243 251 261 275 289 303 315 325 331 336 339 341 343 344 344 344 344 343 341 338 333 325 315 304 293 283 274 268 265 263 262 261 259 259 259 262 263 265 268 270 271
245 242 242 239 235 233 232 230 230 230 230 231 231 231 232 232 231 230 230 229 229 228 225 225 223 223 222 221 221 221 221 221 222 224 225 227 229 231 233 234 235 235 237 241 246 253 263 275 288 301 313 322 328 331 335 337 339 340 340 340 341 340 340 338 333 326 317 307 297 287 279 271 267 263 261 260 257 256 255 257 258 260 262 263 265
249 247 244 241 238 235 234 232 232 232 231 232 231 231 232 233 233 232 232 231 231 229 226 225 224 224 223 223 224 224 224 223 224 225 226 228 230 233 234 236 235 236 239 242 248 255 264 275 287 299 310 318 323 327 331 333 334 335 335 337 338 338 339 337 333 327 319 311 301 291 282 274 268 263 260 257 255 254 253 254 255 257 258 259 261
255 251 246 243 241 238 237 236 234 233 233 233 232 232 232 233 233 232 233 233 233 232 229 226 225 225 224 225 225 225 225 224 225 226 228 229 231 233 234 236 237 239 242 245 251 257 265 275 285 296 305 313 318 322 326 328 329 330 330 332 334 336 336 334 331 326 320 312 304 293 284 277 269 264 258 255 253 251 250 250 251 254 255 256 258
256 254 251 247 245 240 239 238 237 236 234 235 234 234 233 233 233 233 233 234 234 234 231 228 227 227 226 226 226 226 226 225 226 227 229 230 232 234 235 238 240 242 244 248 253 259 267 276 286 295 303 309 315 319 321 322 323 324 325 328 330 332 333 332 329 324 319 312 304 294 285 278 272 266 260 256 253 250 248 246 246 250 253 253 254
258 256 253 250 247 243 240 240 239 238 236 236 236 235 235 234 234 234 233 234 234 234 232 230 229 229 228 229 229 228 228 227 227 228 229 232 234 236 237 239 241 244 247 251 256 263 270 279 287 295 302 307 310 312 314 315 316 317 320 323 326 329 330 328 326 322 316 309 301 292 284 277 272 268 263 259 256 252 250 248 247 248 251 251 251
258 257 255 252 249 245 242 241 240 239 238 238 237 237 236 236 236 235 234 234 234 234 233 232 230 230 230 230 231 230 229 227 227 228 230 233 235 238 240 241 244 246 249 253 257 263 269 275 282 288 295 300 303 304 306 308 310 312 315 320 323 326 327 327 325 321 316 308 299 290 281 274 270 267 263 260 257 255 253 251 248 246 248 248 251
261 261 260 256 253 250 246 243 241 240 240 239 238 238 238 238 238 236 236 235 235 234 234 233 232 230 231 231 232 231 230 229 228 228 229 232 236 239 241 243 245 248 249 252 255 259 263 268 273 280 286 290 294 296 299 302 305 309 313 317 320 323 325 326 325 321 316 308 299 290 281 272 267 264 262 258 254 253 251 250 248 248 251 250 249
267 266 263 260 257 255 251 248 244 242 242 241 240 240 240 239 239 238 237 236 235 235 234 234 233 231 231 232 232 232 231 231 230 229 229 231 235 238 241 243 245 247 248 250 253 256 259 263 267 273 277 281 285 289 293 297 300 305 310 313 317 320 323 325 324 320 314 307 298 290 282 272 265 259 256 254 251 250 249 249 251 252 252 248 244
270 266 263 261 259 256 253 251 247 244 243 243 242 240 240 240 240 239 238 237 237 236 236 235 234 232 232 233 233 233 232 232 231 230 230 230 233 237 239 242 244 245 247 250 251 253 256 258 262 265 269 274 278 283 287 292 297 302 307 310 314 318 322 324 322 318 311 304 297 289 280 272 263 255 251 249 249 249 251 253 255 256 252 247 243
272 267 266 264 260 257 254 252 249 248 245 244 243 241 241 240 240 239 238 238 238 238 237 236 235 233 232 232 233 233 233 232 231 231 231 231 233 235 238 240 243 245 246 248 248 250 252 253 256 259 264 268 272 278 284 291 297 301 305 308 312 316 320 322 319 313 306 298 291 283 275 267 259 253 250 248 249 249 252 256 257 259 256 254 251
277 275 272 265 260 257 253 251 249 248 247 245 245 243 242 241 240 240 238 238 238 238 238 236 236 235 233 232 233 233 233 233 232 231 231 231 233 234 237 239 241 243 244 245 246 247 249 250 252 255 259 264 268 275 281 289 294 298 302 304 309 313 316 317 314 308 300 292 283 273 263 255 250 249 250 251 251 251 252 255 257 257 257 257 256
279 279 275 268 263 259 254 251 249 248 248 246 245 244 243 241 240 240 238 238 238 238 238 236 236 235 234 233 233 233 233 233 232 232 232 232 233 234 235 237 239 241 242 244 244 245 246 247 250 253 256 261 266 271 278 284 290 295 299 301 305 309 312 313 310 304 294 283 270 258 246 240 241 246 252 255 253 253 252 253 254 253 253 254 256
275 276 275 271 267 262 257 254 251 249 249 248 246 245 243 242 240 239 238 237 237 238 237 236 236 235 235 234 233 233 233 234 233 232 233 232 232 233 234 235 236 238 240 242 243 243 244 245 248 251 254 258 262 268 275 281 287 293 296 298 302 306 308 309 306 299 285 269 255 243 235 235 245 252 255 254 252 251 251 252 253 254 255 257 259
273 273 273 270 266 262 258 255 251 248 247 247 246 244 242 240 239 238 237 236 236 236 235 235 235 235 236 236 235 234 234 234 233 233 233 232 231 232 232 233 234 236 238 240 241 242 243 244 247 250 253 255 259 265 271 278 284 289 292 295 298 302 305 305 301 291 271 251 240 234 237 245 252 253 252 251 252 254 253 255 257 259 262 264 267
273 272 270 267 263 261 259 255 251 247 245 244 243 242 240 238 237 236 235 236 235 235 235 235 235 235 236 236 236 235 234 234 234 233 232 232 232 232 232 233 233 235 237 239 241 243 244 245 247 249 251 252 257 261 266 273 278 283 287 290 294 298 300 300 294 277 251 234 231 237 245 250 249 246 251 254 257 261 263 265 266 269 272 274 278
275 273 270 267 265 262 258 256 252 248 244 242 241 241 240 238 236 236 236 236 235 235 235 235 234 235 235 236 235 235 234 234 234 233 232 232 232 232 232 233 233 235 237 239 241 243 243 243 244 245 247 249 253 257 261 266 271 277 282 287 290 292 293 293 284 261 236 224 227 243 245 243 247 253 261 265 267 270 272 275 276 277 281 284 286
281 278 275 273 269 264 260 258 253 249 246 244 243 242 242 242 241 242 240 238 236 236 236 236 234 234 234 234 234 234 234 234 233 233 232 232 232 232 232 233 234 235 236 237 238 239 240 241 242 243 245 247 250 253 256 260 265 271 277 282 284 283 282 281 272 252 235 228 230 255 257 242 249 270 275 275 275 274 274 272 273 275 279 282 285
288 284 280 276 269 264 260 257 253 251 249 247 246 245 245 245 245 244 242 240 238 237 237 237 235 234 233 233 233 233 233 234 233 233 233 232 232 232 233 234 235 235 236 236 237 238 239 240 242 244 244 245 247 250 253 256 260 265 272 274 273 273 274 274 264 243 233 231 239 262 261 241 246 273 277 275 272 269 266 264 265 270 275 279 284
289 287 283 277 271 265 260 256 254 252 250 248 248 247 245 244 243 242 241 240 239 237 236 236 234 233 233 233 233 233 233 234 233 233 233 233 233 232 233 235 235 236 236 237 238 239 241 242 243 243 243 243 245 247 250 253 256 260 263 262 262 267 271 271 252 229 233 244 254 265 252 233 247 271 273 275 273 268 264 262 264 268 275 283 290
293 291 287 282 277 272 265 259 255 252 250 249 248 246 244 241 240 238 237 236 235 235 234 233 232 232 232 233 233 233 233 234 233 233 233 233 233 233 233 234 235 236 236 237 238 240 242 243 244 244 244 244 245 246 248 250 253 256 257 256 258 259 259 255 233 233 254 260 260 260 242 236 254 271 275 277 275 271 268 268 270 272 280 289 299
303 298 291 285 279 273 267 260 256 254 251 250 248 246 244 242 239 237 236 234 233 233 233 232 232 231 232 232 232 233 233 233 233 233 233 233 233 233 233 234 235 235 236 236 237 238 240 241 242 243 243 243 243 243 245 247 250 253 256 258 260 259 256 251 244 253 263 260 256 256 249 249 259 271 277 275 273 273 271 273 274 274 284 299 317
320 304 289 282 277 272 266 260 256 254 252 250 249 247 245 244 242 241 241 240 239 239 237 236 235 235 234 234 233 233 233 233 234 233 233 234 233 233 233 234 235 235 236 236 236 237 239 240 241 241 241 240 240 241 243 246 248 250 253 256 259 260 259 256 253 255 257 260 263 260 256 256 260 270 275 273 271 268 267 270 271 274 292 315 340
340 318 294 281 276 272 266 261 256 254 252 250 248 247 247 245 244 243 242 243 244 244 243 240 238 236 235 235 235 234 234 234 234 234 234 234 234 234 234 234 235 235 235 236 236 237 238 239 239 238 238 238 239 241 242 244 246 247 249 252 256 258 258 258 257 255 254 259 263 261 262 261 260 265 271 272 269 265 266 268 269 277 310 347 2
358 344 319 292 276 269 263 259 255 252 250 249 248 247 247 246 245 244 243 243 243 243 243 242 240 238 235 235 235 235 236 236 235 235 235 235 235 235 235 235 235 235 236 236 236 236 237 237 238 238 238 239 239 240 241 244 245 247 249 250 251 253 255 256 257 258 257 257 259 259 258 257 262 270 277 277 272 270 271 271 276 291 329 4 6
5 1 346 317 286 269 261 256 252 251 249 248 248 247 246 244 244 243 243 242 241 240 240 240 239 239 237 236 236 236 236 236 236 236 236 236 236 237 236 237 237 237 237 236 236 236 236 236 237 238 239 239 240 240 241 243 245 246 248 249 250 251 252 254 256 259 260 260 262 262 260 260 267 276 281 282 281 280 278 277 286 301 335 2 3
6 5 1 347 317 285 269 260 255 253 251 249 249 248 246 244 243 243 242 242 241 239 239 239 239 238 238 237 237 238 238 238 237 237 237 237 237 237 237 237 237 237 237 237 237 237 237 236 236 236 237 238 239 239 240 241 241 243 246 249 253 255 255 257 258 260 260 263 266 270 273 273 274 276 278 281 283 284 284 283 285 293 321 350 357